Other Public Products
Issued by NWS Grand Forks, ND

Home | Current Version | Previous Version | Text Only | Print | Product List | Glossary On
Versions: 1 2 3 4 5 6 7 8 9 10 11 12 13 14 15 16 17 18 19 20 21 22 23 24 25 26 27 28 29 30 31 32 33 34 35 36 37 38 39 40 41 42 43 44 45 46 47 48 49 50
000
FPUS83 KFGF 032231
OPUFGF
PRAIRIE TO PINES WEATHER ROUNDUP
NATIONAL WEATHER SERVICE EASTERN NORTH DAKOTA/GRAND FORKS ND
500 PM CDT THU SEP 03 2015

 **SATELLITE DATA USED TO AUGMENT SKY COVER AT AUTOMATED STATIONS**
 *****  WEATHER ACROSS EASTERN NORTH DAKOTA  *****

CITY           SKY/WX    TMP DP  RH WIND       PRES   REMARKS
GRAND FORKS    MOSUNNY   93  71  48 S21G29    29.69S HX 100
GRAND FORKS AF SUNNY     91  71  51 S23       29.69F HX  98
GRAND CITY NWS   N/A     90 N/A N/A S18         N/A
BUXTON         NOT AVBL
DEVILS LAKE    SUNNY     93  70  46 S20G25    29.65S HX  99
FARGO          SUNNY     92  72  51 SE21      29.73F HX  99
WAHPETON ARPT  CLEAR     90  66  45 SE14      29.76F HX  92
$$

 *****  WEATHER ACROSS CENTRAL AND WESTERN NORTH DAKOTA  *****

CITY           SKY/WX    TMP DP  RH WIND       PRES   REMARKS
JAMESTOWN      SUNNY     94  64  37 S17G26    29.70S HX  95
BISMARCK       PTSUNNY  100  59  25 S14       29.64F HX 100
MINOT          MOSUNNY   94  60  32 W6        29.63S HX  94
MINOT AFB      MOSUNNY   93  71  47 NW14      29.63R HX 100
GARRISON         N/A     95  56  26 W8        29.66R HX  93
WILLISTON      PTSUNNY   86  51  29 N15       29.72R
DICKINSON      SUNNY     90  54  29 VRB7      29.71S
HETTINGER      MOSUNNY   90  47  22 W8        29.73F
$$

 *****  OTHER OBSERVATIONS NORTHEAST NORTH DAKOTA  *****

CITY           SKY/WX    TMP DP  RH WIND       PRES   REMARKS
WALHALLA       FAIR      91  73  55 MISG      29.65F HX 100
LANGDON        FAIR      91  70  49 S24       29.69S HX  97
CAVALIER       FAIR      91  70  49 S18G25    29.66F HX  97
GRAFTON        FAIR      91  72  52 S18G26    29.69S HX  98
CANDO          FAIR      93  70  46 SE17G23   29.65S HX  99
FORT TOTTEN      N/A     94  69  43 S14       29.95S HX  99
ROLLA            N/A     93  66  40 S16G22    29.68F HX  96
RUGBY          FAIR     100  57  23 SW21G28   29.62S HX  99
 ***** THE ABOVE OBSERVATIONS ARE NON NWS ARE NOT QUALITY
        CONTROLLED AND MAY MIS-REPORT RAIN FOR SNOW...
$$

 *****  OTHER OBSERVATIONS SOUTHEAST NORTH DAKOTA *****

CITY           SKY/WX    TMP DP  RH WIND       PRES   REMARKS
COOPERSTOWN    NOT AVBL
VALLEY CITY    FAIR      95  66  38 S17       29.72S HX  98
OAKES            N/A     95  88  79 S16G22    29.72F HX 133
GWINNER          N/A     95 N/A N/A SE14G21   29.74S
SHEYENNE NWR     N/A     91  74  57 SE14      29.95S HX 100
BUFFALO        NOT AVBL
WYNDMERE         N/A     91  72  52 S14         N/A  HX  98
 ***** THE ABOVE OBSERVATIONS ARE NON NWS ARE NOT QUALITY
       CONTROLLED AND MAY MIS-REPORT RAIN FOR SNOW...
$$

  *****  WEATHER ACROSS NORTHERN MINNESOTA  *****

CITY           SKY/WX    TMP DP  RH WIND       PRES   REMARKS
FLAG ISLAND    SUNNY     79  64  61 SE14      29.80F
WARROAD        SUNNY     84  72  65 SE18      29.80S
ROSEAU         SUNNY     88  73  62 SE18      29.78S HX  96
HALLOCK        SUNNY     93  70  46 S21G30    29.70S HX  99
THF RVR FALLS  SUNNY     88  70  55 SE15G28   29.77S HX  92
HALSTAD        NOT AVBL
FOSSTON        SUNNY     88  66  48 SE15G23   29.80S HX  90
BAUDETTE       SUNNY     85  63  47 SE20G26   29.84S
WASKISH        SUNNY     82  66  57 SE10G18   29.85F
CROOKSTON      SUNNY     90  70  51 S20G28    29.74S HX  95
$$
  *****  WEATHER ACROSS CENTRAL AND WEST MINNESOTA  *****

CITY           SKY/WX    TMP DP  RH WIND       PRES   REMARKS
BEMIDJI        SUNNY     83  69  62 SE15G21   29.85F
PARK RAPIDS    SUNNY     88  70  55 SE12      29.85F HX  93
WADENA         SUNNY     84  72  65 SE13      29.84F
DETROIT LAKES  SUNNY     88  70  55 SE16      29.83S HX  92
MOORHEAD       SUNNY     90  72  55 SE17      29.75S HX  96
FERGUS FALLS   SUNNY     88  73  62 SE15      29.78S HX  96
ELBOW LAKE     FAIR      86  74  66 SE12G21   29.81S HAZE    HX  94
MORRIS MN      SUNNY     90  75  62 SE14      29.79F HX 100
STAPLES        SUNNY     84  70  61 E9        29.86S
WHEATON        NOT AVBL
$$
  *****  WEATHER ELSEWHERE ACROSS MINNESOTA  *****

CITY           SKY/WX    TMP DP  RH WIND       PRES   REMARKS
DULUTH         SUNNY     69  61  75 E14       29.97S
INTRNTL FALLS  SUNNY     82  63  52 SE10      29.89F
ELY            SUNNY     79  55  44 SE10      29.97S
CLOQUET        SUNNY     70  61  73 E8        29.96S
BRAINERD       SUNNY     81  68  64 SE12G17   29.89S
HIBBING        SUNNY     78  61  55 SE15G21   29.94F
ALEXANDRIA     MOSUNNY   85  74  69 SE15      29.85F HX  92
SAINT CLOUD    MOSUNNY   84  73  69 SE12      29.86F HX  90
MINNEAPOLIS    MOSUNNY   83  72  69 E13       29.87S
$$

  *****  WEATHER ACROSS SOUTH DAKOTA  *****

CITY           SKY/WX    TMP DP  RH WIND       PRES   REMARKS
SIOUX FALLS    MOSUNNY   86  71  60 SE14G22   29.78F HX  91
BROOKINGS      SUNNY     88  70  55 SE12      29.81S HX  92
WATERTOWN      SUNNY     89  70  53 S12       29.79F HX  94
HURON          SUNNY     91  70  49 SE13      29.72F HX  96
SISSETON         N/A     91  73  55 S18       29.75F HX  99
ABERDEEN       SUNNY     92  70  48 S15       29.72F HX  97
MITCHELL       SUNNY     90  72  55 SE15      29.73F HX  97
PIERRE         MOSUNNY   97  54  23 SE22G28   29.67F HX  95
MOBRIDGE       PTSUNNY   96  61  31 SE16      29.64F HX  96
RAPID CITY     PTSUNNY   93  48  21 S14G24    29.73F
$$

  *****  SOME WEATHER IN NEARBY STATES *****

CITY           SKY/WX    TMP DP  RH WIND       PRES   REMARKS
GLASGOW MT     MOSUNNY   82  40  22 NE18      29.78S
GREAT FALLS MT LGT RAIN  61  42  49 NE8       29.91F
CHEYENNE WY    CLOUDY    73  48  41 SW12      30.04F
SCOTTSBLUFF NE PTSUNNY   84  49  29 S7        29.86F
OMAHA NE       MOSUNNY   93  70  46 S20       29.80F HX  99
DES MOINES IA  MOSUNNY   91  70  49 S13       29.85F HX  96
DAVENPORT IA   SUNNY     89  70  53 SW6       29.89F HX  94
CHICAGO IL     MOSUNNY   89  69  51 W15       29.87F HX  93
EAU CLAIRE WI  SUNNY     82  68  62 E9        29.91S
LA CROSSE WI   MOSUNNY   89  73  59 E8        29.87S HX  97
$$

  *****  SOME NATIONAL WEATHER *****

CITY           SKY/WX    TMP DP  RH WIND       PRES   REMARKS
LA GUARDIA NY  PTSUNNY   91  57  31 VRB6      29.81S
RALEIGH NC     PTSUNNY   88  66  48 CALM      29.88F HX  90
ATLANTA GA     LGT RAIN  75  69  81 N5        29.96F
NEW ORLEANS LA PTSUNNY   82  73  74 S10       29.92F
OKLAHOMA CITY  PTSUNNY   92  64  39 SE17G24   29.89F HX  93
ALBUQUERQUE NM MOSUNNY   85  44  23 VRB5      30.05F
SALT LAKE CITY MOSUNNY   88  34  14 S22       29.82F
LOS ANGELES CA MOSUNNY   74  57  55 W14G21    29.86F
BOISE ID       MOSUNNY   70  42  36 NW17G23   29.88F
SEATTLE WA     PTSUNNY   63  46  54 S7        30.00F
$$

*** WEATHER ACROSS MANITOBA...SASKATCHEWAN AND ONTARIO ***
                ***ONTARIO***

CITY           SKY/WX    TMP DP  RH WIND       PRES   REMARKS
GERALDTON      PTSUNNY   82  54  36 S7        30.02R
THUNDER BAY    MOSUNNY   75  57  53 E12       30.00S
SIOUX LOOKOUT  MOSUNNY   82  57  42 S9        29.93F
TORONTO        LGT RAIN  75  63  64 W20G28    29.98R
BIG TROUT LK   SUNNY     81  68  65 S7        29.82F
PICKLE LAKE    MOSUNNY   86  54  32 S6        29.95R
DRYDEN         SUNNY     84  59  42 SE15G21   29.91F
KENORA         MOSUNNY   82  63  51 SE16      29.86S
$$
                *** MANITOBA***

CITY           SKY/WX    TMP DP  RH WIND       PRES   REMARKS
BRANDON        PTSUNNY   86  70  58 E8        29.68S HX  90
DAUPHIN        CLOUDY    73  70  88 N12       29.71R
ISLAND LAKE    PTSUNNY   73  66  78 SE7       29.79S
PILOT MOUND      N/A     91  66  43 S16G26      N/A  HX  94
THE PAS        MOSUNNY   75  50  41 NW13G18   29.77R
THOMPSON       MOSUNNY   79  55  44 SW12      29.69R
WINNIPEG       SUNNY     90  73  58 SE20G26   29.68F HX  98
LYNN LAKE      PTSUNNY   72  52  49 SW17G24   29.69R
CHURCHILL      PTSUNNY   54  50  87 E20G25    29.75F
GILLAM         CLOUDY    75  64  69 S5        29.71F
$$
                ***SASKATCHEWAN***

CITY           SKY/WX    TMP DP  RH WIND       PRES   REMARKS
ESTEVAN        CLOUDY    79  61  53 N15G22    29.72R
KINDERSLEY     PTSUNNY   55  39  54 N8        29.95F
LLOYDMINSTER   PTSUNNY   61  39  44 NW10G18   29.93S
PRINCE ALBERT  MOSUNNY   61  50  67 NW9       29.88S
REGINA         MOSUNNY   73  41  31 N21       29.81R



USA.gov is the U.S. government's official web portal to all federal, state and local government web resources and services.